STARLINK-33768, 63454

Orbit data source: Space-Track

STARLINK-33768, 63454 is a payload satellite owned by SpaceX/Seattle (US) in LEO that was launched on Fri, 04 Apr 2025 UTC via an FALCON 9 launch vehicle from the Air Force Western Test Range (AFWTR). Payload-class satellites include a variety of spacecraft equipped with specific instruments for various scientific and technological missions. These include communications satellites like Starlink; space stations such as the ISS; scientific satellites like the Hubble; Earth observation satellites from companies like Planet Labs, Umbra, and HawkEye 360; GPS; miniature CubeSats for education and research; and military/defense satellites.

Loading next visibility...
Identifier
63454, 2025-069X
Orbit
LEO
Country
Flag of USUS
Related business
Manufacturer
SpaceX/Seattle
Mission
Operational Commercial Communications
Bus & Motor
STARLINK V2MO, Unknown motor
Mass
575 kg wet, ~530 kg dry
Launch date (UTC)
2025-04-04 (1 year ago)
Launch vehicle
FALCON 9
Launch site
Air Force Western Test Range (AFWTR)
Object type
Payload
Rocket body
Debris
Shape & HBR
Box + 2 Pan, 17.7 m
Radar Cross Section
36.964 m², Large (>1 m²)

Expand to show TLE details & history
Last TLE update: 10 hours ago

TLE from 10 hours ago
0 STARLINK-33768
1 63454U 25069X   26145.37611035  .00014027  00000-0  33108-3 0  9990
2 63454  53.1589 143.5687 0001205  79.2899 280.8243 15.42170173 65178
Epoch: 2026-05-25T09:01Z
TLE epoch observation values (Epoch: 2026-05-25T09:01:35.934Z)
Latitude
0.00003°
Longitude
125.2042°
Altitude
440.456 km
Speed
7.649 km/s
True Right ascension
09h 34m 16s
True Declination
0° 00' 00"
Sunlit
Object was in daylight at epoch
Visualization orbit readout
Latitude
Unknown
Longitude
Unknown
Altitude
Unknown
Speed
Unknown
Apparent Right ascension
Unknown
Apparent Declination
Unknown
Sunlit
N/A
Visualization observer readout
Local Sidereal Time
03:50:32
Azimuth
Unknown
Elevation
Unknown
Doppler factor
Unknown
Orbital elements
Apogee altitude
440.785 km
Perigee altitude
439.142 km
Semi-major axis
6,818.101 km
Eccentricity
0.00012
Inclination
53.1589°
RAAN
143.5687°
Arg. of periapsis
79.2899°
True anomaly
280.81074°
Mean anomaly
280.8243°
Eccentric anomaly
280.81752°
Mean motion
3.85521 °/min
Orbital period
93.38 mins
BSTAR
0.00033108
Loading maneuver chart data...
Computing Atmospheric mass density...
Loading historical data...
Loading historical data...
Loading historical data...
Loading historical data...
Loading historical data...
Loading historical data...
Loading historical data...

Documentation

Showing up to 5 results
|